Time,TemperatureF,DewpointF,PressureIn,WindDirection,WindDirectionDegrees,WindSpeedMPH,WindSpeedGustMPH,Humidity,HourlyPrecipIn,Conditions,Clouds,dailyrainin,SoftwareType,DateUTC
2013-04-13 00:00:00,62.3,46.0,29.94,SE,141,0.0,0.0,55,0.00,,SKC,0.00,VWS V14.01,2013-04-13 05:00:00,
2013-04-13 00:05:00,62.0,46.1,29.94,SE,141,0.0,0.0,56,0.00,,SKC,0.00,VWS V14.01,2013-04-13 05:05:00,
2013-04-13 00:10:00,61.7,46.3,29.94,SE,141,0.0,0.0,57,0.00,,SKC,0.00,VWS V14.01,2013-04-13 05:10:00,
2013-04-13 00:15:00,61.4,46.0,29.94,SE,141,0.0,0.0,57,0.00,,SKC,0.00,VWS V14.01,2013-04-13 05:15:00,
2013-04-13 00:20:00,61.2,46.3,29.94,SE,141,0.0,0.0,58,0.00,,SKC,0.00,VWS V14.01,2013-04-13 05:20:00,
2013-04-13 00:25:00,60.9,46.0,29.94,SE,141,0.0,0.0,58,0.00,,SKC,0.00,VWS V14.01,2013-04-13 05:25:00,
2013-04-13 00:30:00,60.5,46.1,29.94,SE,141,0.0,0.0,59,0.00,,SKC,0.00,VWS V14.01,2013-04-13 05:30:00,
2013-04-13 00:35:00,60.2,46.3,29.94,SE,141,0.0,0.0,60,0.00,,SKC,0.00,VWS V14.01,2013-04-13 05:35:00,
2013-04-13 00:40:00,59.7,46.7,29.94,SE,141,0.0,0.0,62,0.00,,SKC,0.00,VWS V14.01,2013-04-13 05:40:00,
2013-04-13 00:45:00,59.4,46.8,29.94,SE,141,0.0,0.0,63,0.00,,SKC,0.00,VWS V14.01,2013-04-13 05:45:00,
2013-04-13 00:50:00,59.3,47.5,29.94,SE,141,0.0,0.0,65,0.00,,SKC,0.00,VWS V14.01,2013-04-13 05:50:00,
2013-04-13 00:55:00,59.2,47.9,29.94,SE,141,0.0,0.0,66,0.00,,SKC,0.00,VWS V14.01,2013-04-13 05:55:00,
2013-04-13 01:00:00,59.3,48.0,29.94,SE,141,0.0,0.0,66,0.00,,SKC,0.00,VWS V14.01,2013-04-13 06:00:00,
2013-04-13 01:05:00,59.2,47.9,29.94,SE,141,0.0,0.0,66,0.00,,SKC,0.00,VWS V14.01,2013-04-13 06:05:00,
2013-04-13 01:10:00,59.1,48.2,29.94,SE,141,0.0,0.0,67,0.00,,SKC,0.00,VWS V14.01,2013-04-13 06:10:00,
2013-04-13 01:15:00,58.9,48.0,29.94,SE,141,0.0,0.0,67,0.00,,SKC,0.00,VWS V14.01,2013-04-13 06:15:00,
2013-04-13 01:20:00,58.6,47.7,29.94,SE,141,0.0,0.0,67,0.00,,SKC,0.00,VWS V14.01,2013-04-13 06:20:00,
2013-04-13 01:25:00,58.4,48.3,29.94,SE,141,0.0,0.0,69,0.00,,SKC,0.00,VWS V14.01,2013-04-13 06:25:00,
2013-04-13 01:30:00,58.1,48.8,29.94,SE,141,0.0,0.0,71,0.00,,SKC,0.00,VWS V14.01,2013-04-13 06:30:00,
2013-04-13 01:35:00,58.0,48.7,29.94,SE,141,0.0,0.0,71,0.00,,SKC,0.00,VWS V14.01,2013-04-13 06:35:00,
2013-04-13 01:40:00,57.8,48.8,29.94,SE,141,0.0,0.0,72,0.00,,SKC,0.00,VWS V14.01,2013-04-13 06:40:00,
2013-04-13 01:45:00,57.7,49.1,29.93,SE,141,0.0,0.0,73,0.00,,SKC,0.00,VWS V14.01,2013-04-13 06:45:00,
2013-04-13 01:50:00,57.5,49.3,29.93,SE,141,0.0,0.0,74,0.00,,SKC,0.00,VWS V14.01,2013-04-13 06:50:00,
2013-04-13 01:55:00,57.3,49.5,29.93,SE,141,0.0,0.0,75,0.00,,SKC,0.00,VWS V14.01,2013-04-13 06:55:00,
2013-04-13 02:00:00,57.2,49.7,29.93,SE,141,0.0,0.0,76,0.00,,SKC,0.00,VWS V14.01,2013-04-13 07:00:00,
2013-04-13 02:05:00,57.0,49.9,29.93,SE,141,0.0,0.0,77,0.00,,SKC,0.00,VWS V14.01,2013-04-13 07:05:00,
2013-04-13 02:10:00,56.9,50.1,29.93,SE,141,0.0,0.0,78,0.00,,SKC,0.00,VWS V14.01,2013-04-13 07:10:00,
2013-04-13 02:16:00,56.7,49.9,29.93,SE,141,0.0,0.0,78,0.00,,SKC,0.00,VWS V14.01,2013-04-13 07:16:00,
2013-04-13 02:20:00,56.7,49.9,29.93,SE,141,0.0,0.0,78,0.00,,SKC,0.00,VWS V14.01,2013-04-13 07:20:00,
2013-04-13 02:21:00,56.5,49.7,29.92,SE,141,0.0,0.0,78,0.00,,SKC,0.00,VWS V14.01,2013-04-13 07:21:00,
2013-04-13 02:26:00,56.2,49.4,29.92,SE,141,0.0,0.0,78,0.00,,SKC,0.00,VWS V14.01,2013-04-13 07:26:00,
2013-04-13 02:30:00,56.1,49.3,29.92,SE,141,0.0,0.0,78,0.00,,SKC,0.00,VWS V14.01,2013-04-13 07:30:00,
2013-04-13 02:31:00,55.9,49.2,29.92,SE,141,0.0,0.0,78,0.00,,SKC,0.00,VWS V14.01,2013-04-13 07:31:00,
2013-04-13 02:36:00,55.5,49.1,29.92,SE,141,0.0,0.0,79,0.00,,SKC,0.00,VWS V14.01,2013-04-13 07:36:00,
2013-04-13 02:40:00,55.5,49.1,29.92,SE,141,0.0,0.0,79,0.00,,SKC,0.00,VWS V14.01,2013-04-13 07:40:00,
2013-04-13 02:42:00,55.1,48.7,29.92,SE,141,0.0,0.0,79,0.00,,SKC,0.00,VWS V14.01,2013-04-13 07:42:00,
2013-04-13 02:47:00,54.8,48.8,29.92,SE,141,0.0,0.0,80,0.00,,SKC,0.00,VWS V14.01,2013-04-13 07:47:00,
2013-04-13 02:50:00,54.8,48.8,29.92,SE,141,0.0,0.0,80,0.00,,SKC,0.00,VWS V14.01,2013-04-13 07:50:00,
2013-04-13 02:52:00,54.5,48.8,29.92,SE,141,0.0,0.0,81,0.00,,SKC,0.00,VWS V14.01,2013-04-13 07:52:00,
2013-04-13 02:57:00,54.2,48.8,29.92,SE,141,0.0,0.0,82,0.00,,SKC,0.00,VWS V14.01,2013-04-13 07:57:00,
2013-04-13 03:00:00,54.3,48.6,29.92,SE,141,0.0,0.0,81,0.00,,SKC,0.00,VWS V14.01,2013-04-13 08:00:00,
2013-04-13 03:02:00,54.0,49.0,29.92,SE,141,0.0,0.0,83,0.00,,SKC,0.00,VWS V14.01,2013-04-13 08:02:00,
2013-04-13 03:07:00,53.9,48.9,29.91,SE,141,0.0,0.0,83,0.00,,SKC,0.00,VWS V14.01,2013-04-13 08:07:00,
2013-04-13 03:10:00,53.9,48.9,29.91,SE,141,0.0,0.0,83,0.00,,SKC,0.00,VWS V14.01,2013-04-13 08:10:00,
2013-04-13 03:12:00,53.6,48.9,29.91,SE,141,0.0,0.0,84,0.00,,SKC,0.00,VWS V14.01,2013-04-13 08:12:00,
2013-04-13 03:17:00,53.5,48.8,29.91,SE,141,0.0,0.0,84,0.00,,SKC,0.00,VWS V14.01,2013-04-13 08:17:00,
2013-04-13 03:20:00,53.5,48.8,29.91,SE,141,0.0,0.0,84,0.00,,SKC,0.00,VWS V14.01,2013-04-13 08:20:00,
2013-04-13 03:22:00,53.3,48.9,29.92,SE,141,0.0,0.0,85,0.00,,SKC,0.00,VWS V14.01,2013-04-13 08:22:00,
2013-04-13 03:27:00,53.1,48.7,29.92,SE,141,0.0,0.0,85,0.00,,SKC,0.00,VWS V14.01,2013-04-13 08:27:00,
2013-04-13 03:30:00,53.2,48.8,29.91,SE,141,0.0,0.0,85,0.00,,SKC,0.00,VWS V14.01,2013-04-13 08:30:00,
2013-04-13 03:32:00,52.9,48.5,29.92,SE,141,0.0,0.0,85,0.00,,SKC,0.00,VWS V14.01,2013-04-13 08:32:00,
2013-04-13 03:37:00,52.7,48.6,29.91,SE,141,0.0,0.0,86,0.00,,SKC,0.00,VWS V14.01,2013-04-13 08:37:00,
2013-04-13 03:40:00,52.7,48.6,29.92,SE,141,0.0,0.0,86,0.00,,SKC,0.00,VWS V14.01,2013-04-13 08:40:00,
2013-04-13 03:42:00,52.5,48.4,29.91,SE,141,0.0,0.0,86,0.00,,SKC,0.00,VWS V14.01,2013-04-13 08:42:00,
2013-04-13 03:47:00,52.4,48.3,29.90,SE,141,0.0,0.0,86,0.00,,SKC,0.00,VWS V14.01,2013-04-13 08:47:00,
2013-04-13 03:50:00,52.4,48.3,29.91,SE,141,0.0,0.0,86,0.00,,SKC,0.00,VWS V14.01,2013-04-13 08:50:00,
2013-04-13 03:52:00,52.2,48.5,29.91,SE,141,0.0,0.0,87,0.00,,SKC,0.00,VWS V14.01,2013-04-13 08:52:00,
2013-04-13 03:57:00,52.1,48.4,29.91,SE,141,0.0,0.0,87,0.00,,SKC,0.00,VWS V14.01,2013-04-13 08:57:00,
2013-04-13 04:00:00,52.1,48.4,29.91,SE,141,0.0,0.0,87,0.00,,SKC,0.00,VWS V14.01,2013-04-13 09:00:00,
2013-04-13 04:02:00,52.0,48.6,29.91,SE,141,0.0,0.0,88,0.00,,SKC,0.00,VWS V14.01,2013-04-13 09:02:00,
2013-04-13 04:08:00,51.9,48.5,29.91,SE,141,0.0,0.0,88,0.00,,SKC,0.00,VWS V14.01,2013-04-13 09:08:00,
2013-04-13 04:10:00,51.9,48.5,29.91,SE,141,0.0,0.0,88,0.00,,SKC,0.00,VWS V14.01,2013-04-13 09:10:00,
2013-04-13 04:13:00,51.8,48.4,29.91,SE,141,0.0,0.0,88,0.00,,SKC,0.00,VWS V14.01,2013-04-13 09:13:00,
2013-04-13 04:18:00,51.7,48.6,29.91,SE,141,0.0,0.0,89,0.00,,SKC,0.00,VWS V14.01,2013-04-13 09:18:00,
2013-04-13 04:20:00,51.7,48.6,29.91,SE,141,0.0,0.0,89,0.00,,SKC,0.00,VWS V14.01,2013-04-13 09:20:00,
2013-04-13 04:23:00,51.6,48.2,29.91,SE,141,0.0,0.0,88,0.00,,SKC,0.00,VWS V14.01,2013-04-13 09:23:00,
2013-04-13 04:28:00,51.6,48.5,29.91,SE,141,0.0,0.0,89,0.00,,SKC,0.00,VWS V14.01,2013-04-13 09:28:00,
2013-04-13 04:30:00,51.6,48.5,29.91,SE,141,0.0,0.0,89,0.00,,SKC,0.00,VWS V14.01,2013-04-13 09:30:00,
2013-04-13 04:33:00,51.5,48.7,29.91,SE,141,0.0,0.0,90,0.00,,SKC,0.00,VWS V14.01,2013-04-13 09:33:00,
2013-04-13 04:38:00,51.6,48.8,29.91,SE,141,0.0,0.0,90,0.00,,SKC,0.00,VWS V14.01,2013-04-13 09:38:00,
2013-04-13 04:40:00,51.5,48.7,29.91,SE,141,0.0,0.0,90,0.00,,SKC,0.00,VWS V14.01,2013-04-13 09:40:00,
2013-04-13 04:43:00,51.6,48.8,29.91,SE,141,0.0,0.0,90,0.00,,SKC,0.00,VWS V14.01,2013-04-13 09:43:00,
2013-04-13 04:49:00,51.5,48.7,29.91,SE,141,0.0,0.0,90,0.00,,SKC,0.00,VWS V14.01,2013-04-13 09:49:00,
2013-04-13 04:50:00,51.5,48.7,29.91,SE,141,0.0,0.0,90,0.00,,SKC,0.00,VWS V14.01,2013-04-13 09:50:00,
2013-04-13 04:54:00,51.5,48.7,29.90,SE,141,0.0,0.0,90,0.00,,SKC,0.00,VWS V14.01,2013-04-13 09:54:00,
2013-04-13 04:59:00,51.6,49.1,29.90,SE,141,0.0,0.0,91,0.00,,SKC,0.00,VWS V14.01,2013-04-13 09:59:00,
2013-04-13 05:00:00,51.5,49.0,29.90,SE,141,0.0,0.0,91,0.00,,SKC,0.00,VWS V14.01,2013-04-13 10:00:00,
2013-04-13 05:04:00,51.6,49.1,29.90,SE,141,0.0,0.0,91,0.00,,SKC,0.00,VWS V14.01,2013-04-13 10:04:00,
2013-04-13 05:09:00,51.8,49.5,29.90,SE,141,0.0,0.0,92,0.00,,SKC,0.00,VWS V14.01,2013-04-13 10:09:00,
2013-04-13 05:10:00,51.7,49.2,29.90,SE,141,0.0,0.0,91,0.00,,SKC,0.00,VWS V14.01,2013-04-13 10:10:00,
2013-04-13 05:14:00,52.0,49.8,29.90,SE,141,0.0,0.0,92,0.00,,SKC,0.00,VWS V14.01,2013-04-13 10:14:00,
2013-04-13 05:19:00,52.1,49.8,29.90,SE,141,0.0,0.0,92,0.00,,SKC,0.00,VWS V14.01,2013-04-13 10:19:00,
2013-04-13 05:20:00,52.1,49.8,29.90,SE,141,0.0,0.0,92,0.00,,SKC,0.00,VWS V14.01,2013-04-13 10:20:00,
2013-04-13 05:24:00,52.1,49.8,29.90,SE,141,0.0,0.0,92,0.00,,SKC,0.00,VWS V14.01,2013-04-13 10:24:00,
2013-04-13 05:29:00,52.0,49.8,29.90,SE,141,0.0,0.0,92,0.00,,SKC,0.00,VWS V14.01,2013-04-13 10:29:00,
2013-04-13 05:30:00,52.1,49.8,29.90,SE,141,0.0,0.0,92,0.00,,SKC,0.00,VWS V14.01,2013-04-13 10:30:00,
2013-04-13 05:34:00,51.9,49.4,29.90,SE,141,0.0,0.0,91,0.00,,SKC,0.00,VWS V14.01,2013-04-13 10:34:00,
2013-04-13 05:39:00,51.7,49.2,29.90,SE,141,0.0,0.0,91,0.00,,SKC,0.00,VWS V14.01,2013-04-13 10:39:00,
2013-04-13 05:40:00,51.8,49.3,29.90,SE,141,0.0,0.0,91,0.00,,SKC,0.00,VWS V14.01,2013-04-13 10:40:00,
2013-04-13 05:44:00,51.5,49.0,29.90,SE,141,0.0,0.0,91,0.00,,SKC,0.00,VWS V14.01,2013-04-13 10:44:00,
2013-04-13 05:49:00,51.3,48.8,29.90,SE,141,0.0,0.0,91,0.00,,SKC,0.00,VWS V14.01,2013-04-13 10:49:00,
2013-04-13 05:50:00,51.4,48.9,29.90,SE,141,0.0,0.0,91,0.00,,SKC,0.00,VWS V14.01,2013-04-13 10:50:00,
2013-04-13 05:54:00,51.2,48.7,29.90,SE,141,0.0,0.0,91,0.00,,SKC,0.00,VWS V14.01,2013-04-13 10:54:00,
2013-04-13 06:00:00,51.1,48.6,29.90,SE,141,0.0,0.0,91,0.00,,SKC,0.00,VWS V14.01,2013-04-13 11:00:00,
2013-04-13 06:05:00,51.2,49.0,29.89,SE,141,0.0,0.0,92,0.00,,SKC,0.00,VWS V14.01,2013-04-13 11:05:00,
2013-04-13 06:10:00,51.4,49.5,29.89,SE,141,0.0,0.0,93,0.00,,SKC,0.00,VWS V14.01,2013-04-13 11:10:00,
2013-04-13 06:15:00,51.6,49.7,29.89,SE,141,0.0,0.0,93,0.00,,SKC,0.00,VWS V14.01,2013-04-13 11:15:00,
2013-04-13 06:20:00,51.8,49.8,29.89,SE,141,0.0,0.0,93,0.00,,SKC,0.00,VWS V14.01,2013-04-13 11:20:00,
2013-04-13 06:25:00,51.9,49.9,29.90,SE,141,0.0,0.0,93,0.00,,SKC,0.00,VWS V14.01,2013-04-13 11:25:00,
2013-04-13 06:30:00,52.1,50.1,29.90,SE,141,0.0,0.0,93,0.00,,SKC,0.00,VWS V14.01,2013-04-13 11:30:00,
2013-04-13 06:35:00,52.2,50.5,29.90,SE,141,0.0,0.0,94,0.00,,SKC,0.00,VWS V14.01,2013-04-13 11:35:00,
2013-04-13 06:40:00,52.3,50.6,29.90,SE,141,0.0,0.0,94,0.00,,SKC,0.00,VWS V14.01,2013-04-13 11:40:00,
2013-04-13 06:45:00,52.5,50.8,29.90,SE,141,0.0,0.0,94,0.00,,SKC,0.00,VWS V14.01,2013-04-13 11:45:00,
2013-04-13 06:50:00,52.7,51.0,29.90,SE,141,0.0,0.0,94,0.00,,SKC,0.00,VWS V14.01,2013-04-13 11:50:00,
2013-04-13 06:55:00,52.9,51.2,29.89,SE,141,0.0,0.0,94,0.00,,SKC,0.00,VWS V14.01,2013-04-13 11:55:00,
2013-04-13 07:00:00,53.0,51.3,29.90,SE,141,0.0,0.0,94,0.00,,SKC,0.00,VWS V14.01,2013-04-13 12:00:00,
2013-04-13 07:05:00,53.1,51.4,29.90,SE,141,0.0,0.0,94,0.00,,SKC,0.00,VWS V14.01,2013-04-13 12:05:00,
2013-04-13 07:10:00,53.2,51.5,29.90,SE,141,0.0,0.0,94,0.00,,SKC,0.00,VWS V14.01,2013-04-13 12:10:00,
2013-04-13 07:15:00,53.3,51.6,29.90,SE,141,0.0,0.0,94,0.00,,SKC,0.00,VWS V14.01,2013-04-13 12:15:00,
2013-04-13 07:20:00,53.3,51.6,29.90,SE,141,0.0,0.0,94,0.00,,SKC,0.00,VWS V14.01,2013-04-13 12:20:00,
2013-04-13 07:21:00,53.3,51.6,29.90,SE,141,0.0,0.0,94,0.00,,SKC,0.00,VWS V14.01,2013-04-13 12:21:00,
2013-04-13 07:26:00,53.4,51.7,29.90,SE,141,0.0,0.0,94,0.00,,SKC,0.00,VWS V14.01,2013-04-13 12:26:00,
2013-04-13 07:30:00,53.4,51.7,29.90,SE,141,0.0,0.0,94,0.00,,SKC,0.00,VWS V14.01,2013-04-13 12:30:00,
2013-04-13 07:31:00,53.5,51.8,29.90,SE,141,0.0,0.0,94,0.00,,SKC,0.00,VWS V14.01,2013-04-13 12:31:00,
2013-04-13 07:36:00,53.4,51.7,29.90,SE,141,0.0,0.0,94,0.00,,SKC,0.00,VWS V14.01,2013-04-13 12:36:00,
2013-04-13 07:40:00,53.4,51.7,29.90,SE,141,0.0,0.0,94,0.00,,SKC,0.00,VWS V14.01,2013-04-13 12:40:00,
2013-04-13 07:42:00,53.3,51.6,29.91,SE,141,0.0,0.0,94,0.00,,SKC,0.00,VWS V14.01,2013-04-13 12:42:00,
2013-04-13 07:47:00,53.4,51.7,29.90,SE,141,0.0,0.0,94,0.00,,SKC,0.00,VWS V14.01,2013-04-13 12:47:00,
2013-04-13 07:50:00,53.4,51.7,29.90,SE,141,0.0,0.0,94,0.00,,SKC,0.00,VWS V14.01,2013-04-13 12:50:00,
2013-04-13 07:52:00,53.7,52.3,29.91,SE,141,0.0,0.0,95,0.00,,SKC,0.00,VWS V14.01,2013-04-13 12:52:00,
2013-04-13 07:57:00,54.2,52.8,29.91,SE,141,0.0,0.0,95,0.00,,SKC,0.00,VWS V14.01,2013-04-13 12:57:00,
2013-04-13 08:00:00,54.1,52.7,29.91,SE,141,0.0,0.0,95,0.00,,SKC,0.00,VWS V14.01,2013-04-13 13:00:00,
2013-04-13 08:02:00,54.7,53.6,29.91,SE,141,0.0,0.0,96,0.00,,SKC,0.00,VWS V14.01,2013-04-13 13:02:00,
2013-04-13 08:07:00,55.2,54.1,29.92,SE,141,0.0,0.0,96,0.00,,SKC,0.00,VWS V14.01,2013-04-13 13:07:00,
2013-04-13 08:10:00,55.1,54.0,29.92,SE,141,0.0,0.0,96,0.00,,SKC,0.00,VWS V14.01,2013-04-13 13:10:00,
2013-04-13 08:12:00,55.7,54.6,29.92,SE,141,0.0,1.0,96,0.00,,SKC,0.00,VWS V14.01,2013-04-13 13:12:00,
2013-04-13 08:18:00,56.2,55.1,29.92,SE,141,0.0,0.0,96,0.00,,SKC,0.00,VWS V14.01,2013-04-13 13:18:00,
2013-04-13 08:20:00,56.1,55.0,29.92,SE,141,0.0,1.0,96,0.00,,SKC,0.00,VWS V14.01,2013-04-13 13:20:00,
2013-04-13 08:23:00,56.6,55.5,29.92,SE,141,0.0,4.0,96,0.00,,SKC,0.00,VWS V14.01,2013-04-13 13:23:00,
2013-04-13 08:28:00,56.9,55.8,29.92,SE,141,0.0,0.0,96,0.00,,SKC,0.00,VWS V14.01,2013-04-13 13:28:00,
2013-04-13 08:30:00,56.8,55.7,29.92,SE,141,0.0,4.0,96,0.00,,SKC,0.00,VWS V14.01,2013-04-13 13:30:00,
2013-04-13 08:33:00,57.2,56.1,29.92,SE,141,0.0,0.0,96,0.00,,SKC,0.00,VWS V14.01,2013-04-13 13:33:00,
2013-04-13 08:38:00,57.5,56.4,29.92,SE,141,0.0,3.0,96,0.00,,SKC,0.00,VWS V14.01,2013-04-13 13:38:00,
2013-04-13 08:40:00,57.4,56.3,29.92,SE,141,0.0,3.0,96,0.00,,SKC,0.00,VWS V14.01,2013-04-13 13:40:00,
2013-04-13 08:43:00,57.8,56.7,29.92,SE,141,0.0,3.0,96,0.00,,SKC,0.00,VWS V14.01,2013-04-13 13:43:00,
2013-04-13 08:48:00,58.3,56.9,29.92,SE,141,0.0,0.0,95,0.00,,SKC,0.00,VWS V14.01,2013-04-13 13:48:00,
2013-04-13 08:50:00,58.1,56.7,29.92,SE,141,0.0,3.0,95,0.00,,SKC,0.00,VWS V14.01,2013-04-13 13:50:00,
2013-04-13 08:53:00,58.8,57.4,29.91,SE,141,0.0,2.0,95,0.00,,SKC,0.00,VWS V14.01,2013-04-13 13:53:00,
2013-04-13 08:58:00,59.3,57.9,29.91,SE,141,0.0,0.0,95,0.00,,SKC,0.00,VWS V14.01,2013-04-13 13:58:00,
2013-04-13 09:00:00,59.1,57.7,29.91,SE,141,0.0,6.0,95,0.00,,SKC,0.00,VWS V14.01,2013-04-13 14:00:00,
2013-04-13 09:04:00,59.7,57.7,29.91,SE,141,0.0,2.0,93,0.00,,SKC,0.00,VWS V14.01,2013-04-13 14:04:00,
2013-04-13 09:09:00,60.0,57.4,29.91,SE,141,0.0,3.0,91,0.00,,SKC,0.00,VWS V14.01,2013-04-13 14:09:00,
2013-04-13 09:10:00,59.9,57.6,29.91,SE,141,0.0,5.0,92,0.00,,SKC,0.00,VWS V14.01,2013-04-13 14:10:00,
2013-04-13 09:14:00,60.2,57.3,29.91,SE,141,0.0,3.0,90,0.00,,SKC,0.00,VWS V14.01,2013-04-13 14:14:00,
2013-04-13 09:19:00,60.3,57.0,29.91,SE,141,0.0,2.0,89,0.00,,SKC,0.00,VWS V14.01,2013-04-13 14:19:00,
2013-04-13 09:20:00,60.2,57.3,29.91,SE,141,0.0,3.0,90,0.00,,SKC,0.00,VWS V14.01,2013-04-13 14:20:00,
2013-04-13 09:24:00,60.5,56.9,29.91,SE,141,0.0,6.0,88,0.00,,SKC,0.00,VWS V14.01,2013-04-13 14:24:00,
2013-04-13 09:29:00,60.7,57.1,29.91,SE,141,0.0,3.0,88,0.00,,SKC,0.00,VWS V14.01,2013-04-13 14:29:00,
2013-04-13 09:30:00,60.6,57.0,29.90,SE,141,0.0,6.0,88,0.00,,SKC,0.00,VWS V14.01,2013-04-13 14:30:00,
2013-04-13 09:34:00,61.1,57.2,29.90,SE,140,4.0,7.0,87,0.00,,SKC,0.00,VWS V14.01,2013-04-13 14:34:00,
2013-04-13 09:39:00,61.4,57.2,29.91,SE,140,0.0,6.0,86,0.00,,SKC,0.00,VWS V14.01,2013-04-13 14:39:00,
2013-04-13 09:40:00,61.3,57.4,29.91,SE,140,1.0,7.0,87,0.00,,SKC,0.00,VWS V14.01,2013-04-13 14:40:00,
2013-04-13 09:44:00,61.8,57.6,29.90,SE,140,0.0,6.0,86,0.00,,SKC,0.00,VWS V14.01,2013-04-13 14:44:00,
2013-04-13 09:49:00,62.3,57.7,29.90,SE,138,0.0,5.0,85,0.00,,SKC,0.00,VWS V14.01,2013-04-13 14:49:00,
2013-04-13 09:50:00,62.0,57.8,29.90,SE,139,0.0,6.0,86,0.00,,SKC,0.00,VWS V14.01,2013-04-13 14:50:00,
2013-04-13 09:54:00,63.0,58.1,29.90,SE,138,0.0,5.0,84,0.00,,SKC,0.00,VWS V14.01,2013-04-13 14:54:00,
2013-04-13 09:59:00,63.7,58.8,29.90,SE,138,0.0,1.0,84,0.00,,SKC,0.00,VWS V14.01,2013-04-13 14:59:00,
2013-04-13 10:00:00,63.3,58.1,29.90,SE,138,0.0,5.0,83,0.00,,SKC,0.00,VWS V14.01,2013-04-13 15:00:00,
2013-04-13 10:04:00,64.6,59.3,29.90,SE,138,0.0,8.0,83,0.00,,SKC,0.00,VWS V14.01,2013-04-13 15:04:00,
2013-04-13 10:10:00,65.3,59.0,29.90,SE,138,0.0,2.0,80,0.00,,SKC,0.00,VWS V14.01,2013-04-13 15:10:00,
2013-04-13 10:15:00,66.0,59.7,29.90,SE,138,0.0,5.0,80,0.00,,SKC,0.00,VWS V14.01,2013-04-13 15:15:00,
2013-04-13 10:20:00,66.8,60.1,29.90,SE,138,0.0,1.0,79,0.00,,SKC,0.00,VWS V14.01,2013-04-13 15:20:00,
2013-04-13 10:25:00,67.6,59.8,29.90,SE,138,0.0,7.0,76,0.00,,SKC,0.00,VWS V14.01,2013-04-13 15:25:00,
2013-04-13 10:30:00,67.9,60.1,29.90,SE,138,0.0,8.0,76,0.00,,SKC,0.00,VWS V14.01,2013-04-13 15:30:00,
2013-04-13 10:35:00,68.2,60.3,29.89,SE,137,0.0,8.0,76,0.00,,SKC,0.00,VWS V14.01,2013-04-13 15:35:00,
2013-04-13 10:40:00,68.3,60.1,29.89,SE,136,6.0,6.0,75,0.00,,SKC,0.00,VWS V14.01,2013-04-13 15:40:00,
2013-04-13 10:45:00,68.5,60.3,29.90,SE,136,3.0,6.0,75,0.00,,SKC,0.00,VWS V14.01,2013-04-13 15:45:00,
2013-04-13 10:50:00,68.7,60.1,29.89,SE,136,0.0,7.0,74,0.00,,SKC,0.00,VWS V14.01,2013-04-13 15:50:00,
2013-04-13 10:55:00,69.0,60.4,29.89,SE,135,0.0,7.0,74,0.00,,SKC,0.00,VWS V14.01,2013-04-13 15:55:00,
2013-04-13 11:00:00,69.4,60.0,29.89,SE,135,0.0,8.0,72,0.00,,SKC,0.00,VWS V14.01,2013-04-13 16:00:00,
2013-04-13 11:05:00,69.9,60.1,29.89,SE,135,0.0,8.0,71,0.00,,SKC,0.00,VWS V14.01,2013-04-13 16:05:00,
2013-04-13 11:10:00,70.7,60.5,29.89,SE,135,0.0,1.0,70,0.00,,SKC,0.00,VWS V14.01,2013-04-13 16:10:00,
2013-04-13 11:15:00,71.3,60.2,29.89,SE,135,0.0,3.0,68,0.00,,SKC,0.00,VWS V14.01,2013-04-13 16:15:00,
2013-04-13 11:20:00,71.6,60.1,29.89,SE,135,0.0,4.0,67,0.00,,SKC,0.00,VWS V14.01,2013-04-13 16:20:00,
2013-04-13 11:25:00,71.8,59.0,29.89,SE,135,0.0,7.0,64,0.00,,SKC,0.00,VWS V14.01,2013-04-13 16:25:00,
2013-04-13 11:30:00,72.0,60.0,29.89,SE,135,5.0,5.0,66,0.00,,SKC,0.00,VWS V14.01,2013-04-13 16:30:00,
2013-04-13 11:35:00,72.1,58.4,29.89,SE,135,0.0,6.0,62,0.00,,SKC,0.00,VWS V14.01,2013-04-13 16:35:00,
2013-04-13 11:40:00,72.3,58.1,29.89,SE,134,0.0,7.0,61,0.00,,SKC,0.00,VWS V14.01,2013-04-13 16:40:00,
2013-04-13 11:46:00,72.4,58.2,29.89,SE,134,2.0,7.0,61,0.00,,SKC,0.00,VWS V14.01,2013-04-13 16:46:00,
2013-04-13 11:50:00,72.4,58.2,29.89,SE,134,0.0,7.0,61,0.00,,SKC,0.00,VWS V14.01,2013-04-13 16:50:00,
2013-04-13 11:51:00,72.5,57.8,29.89,SE,134,0.0,4.0,60,0.00,,SKC,0.00,VWS V14.01,2013-04-13 16:51:00,
2013-04-13 11:56:00,72.6,58.4,29.89,SE,134,0.0,4.0,61,0.00,,SKC,0.00,VWS V14.01,2013-04-13 16:56:00,
2013-04-13 12:00:00,72.6,58.4,29.88,SE,134,7.0,7.0,61,0.00,,SKC,0.00,VWS V14.01,2013-04-13 17:00:00,
2013-04-13 12:01:00,72.9,58.7,29.88,SE,134,0.0,7.0,61,0.00,,SKC,0.00,VWS V14.01,2013-04-13 17:01:00,
2013-04-13 12:06:00,73.7,59.0,29.88,SE,134,0.0,7.0,60,0.00,,SKC,0.00,VWS V14.01,2013-04-13 17:06:00,
2013-04-13 12:10:00,73.7,59.0,29.88,SE,134,0.0,7.0,60,0.00,,SKC,0.00,VWS V14.01,2013-04-13 17:10:00,
2013-04-13 12:11:00,74.2,58.5,29.88,SE,134,0.0,6.0,58,0.00,,SKC,0.00,VWS V14.01,2013-04-13 17:11:00,
2013-04-13 12:16:00,74.4,59.2,29.87,SE,134,0.0,0.0,59,0.00,,SKC,0.00,VWS V14.01,2013-04-13 17:16:00,
2013-04-13 12:20:00,74.4,59.2,29.87,SE,134,0.0,6.0,59,0.00,,SKC,0.00,VWS V14.01,2013-04-13 17:20:00,
2013-04-13 12:21:00,74.8,58.1,29.86,SE,134,0.0,5.0,56,0.00,,SKC,0.00,VWS V14.01,2013-04-13 17:21:00,
2013-04-13 12:26:00,75.5,57.2,29.86,SE,132,0.0,3.0,53,0.00,,SKC,0.00,VWS V14.01,2013-04-13 17:26:00,
2013-04-13 12:30:00,75.4,58.1,29.86,SE,132,3.0,7.0,55,0.00,,SKC,0.00,VWS V14.01,2013-04-13 17:30:00,
2013-04-13 12:31:00,76.3,57.9,29.86,SE,132,0.0,5.0,53,0.00,,SKC,0.00,VWS V14.01,2013-04-13 17:31:00,
2013-04-13 12:37:00,76.8,57.3,29.86,SE,131,6.0,6.0,51,0.00,,SKC,0.00,VWS V14.01,2013-04-13 17:37:00,
2013-04-13 12:40:00,76.8,57.3,29.86,SE,132,0.0,5.0,51,0.00,,SKC,0.00,VWS V14.01,2013-04-13 17:40:00,
2013-04-13 12:42:00,77.3,58.3,29.85,SE,128,4.0,8.0,52,0.00,,SKC,0.00,VWS V14.01,2013-04-13 17:42:00,
2013-04-13 12:47:00,77.8,57.7,29.86,ESE,107,0.0,0.0,50,0.00,,SKC,0.00,VWS V14.01,2013-04-13 17:47:00,
2013-04-13 12:50:00,77.8,57.7,29.85,ESE,107,0.0,13.0,50,0.00,,SKC,0.00,VWS V14.01,2013-04-13 17:50:00,
2013-04-13 12:52:00,77.8,55.4,29.85,ESE,107,0.0,4.0,46,0.00,,SKC,0.00,VWS V14.01,2013-04-13 17:52:00,
2013-04-13 12:57:00,77.5,54.5,29.85,ESE,107,0.0,8.0,45,0.00,,SKC,0.00,VWS V14.01,2013-04-13 17:57:00,
2013-04-13 13:00:00,77.6,54.6,29.85,ESE,107,3.0,8.0,45,0.00,,SKC,0.00,VWS V14.01,2013-04-13 18:00:00,
2013-04-13 13:02:00,77.3,54.9,29.85,ESE,107,2.0,8.0,46,0.00,,SKC,0.00,VWS V14.01,2013-04-13 18:02:00,
2013-04-13 13:07:00,77.4,56.2,29.85,ESE,107,0.0,0.0,48,0.00,,SKC,0.00,VWS V14.01,2013-04-13 18:07:00,
2013-04-13 13:10:00,77.4,55.6,29.85,ESE,107,0.0,8.0,47,0.00,,SKC,0.00,VWS V14.01,2013-04-13 18:10:00,
2013-04-13 13:12:00,77.4,56.2,29.84,ESE,107,0.0,2.0,48,0.00,,SKC,0.00,VWS V14.01,2013-04-13 18:12:00,
2013-04-13 13:17:00,77.5,54.5,29.85,ESE,107,0.0,0.0,45,0.00,,SKC,0.00,VWS V14.01,2013-04-13 18:17:00,
2013-04-13 13:20:00,77.4,54.4,29.85,ESE,107,0.0,5.0,45,0.00,,SKC,0.00,VWS V14.01,2013-04-13 18:20:00,
2013-04-13 13:22:00,77.6,56.4,29.84,ESE,107,0.0,0.0,48,0.00,,SKC,0.00,VWS V14.01,2013-04-13 18:22:00,
2013-04-13 13:27:00,77.7,54.1,29.84,ESE,107,4.0,5.0,44,0.00,,SKC,0.00,VWS V14.01,2013-04-13 18:27:00,
2013-04-13 13:30:00,77.7,54.7,29.84,ESE,107,0.0,10.0,45,0.00,,SKC,0.00,VWS V14.01,2013-04-13 18:30:00,
2013-04-13 13:32:00,77.6,54.6,29.84,ESE,107,0.0,9.0,45,0.00,,SKC,0.00,VWS V14.01,2013-04-13 18:32:00,
2013-04-13 13:37:00,77.5,55.1,29.84,ESE,107,0.0,1.0,46,0.00,,SKC,0.00,VWS V14.01,2013-04-13 18:37:00,
2013-04-13 13:40:00,77.5,55.1,29.84,ESE,107,0.0,9.0,46,0.00,,SKC,0.00,VWS V14.01,2013-04-13 18:40:00,
2013-04-13 13:42:00,77.4,55.6,29.84,ESE,107,0.0,3.0,47,0.00,,SKC,0.00,VWS V14.01,2013-04-13 18:42:00,
2013-04-13 13:47:00,77.7,55.3,29.83,ESE,107,0.0,8.0,46,0.00,,SKC,0.00,VWS V14.01,2013-04-13 18:47:00,
2013-04-13 13:50:00,77.6,55.8,29.84,ESE,107,8.0,8.0,47,0.00,,SKC,0.00,VWS V14.01,2013-04-13 18:50:00,
2013-04-13 13:52:00,78.4,54.7,29.83,ESE,107,2.0,8.0,44,0.00,,SKC,0.00,VWS V14.01,2013-04-13 18:52:00,
2013-04-13 13:57:00,78.7,55.0,29.83,SE,142,3.0,13.0,44,0.00,,SKC,0.00,VWS V14.01,2013-04-13 18:57:00,
2013-04-13 14:00:00,78.7,55.0,29.83,ESE,107,0.0,9.0,44,0.00,,SKC,0.00,VWS V14.01,2013-04-13 19:00:00,
2013-04-13 14:02:00,78.7,54.3,29.83,ESE,119,0.0,13.0,43,0.00,,SKC,0.00,VWS V14.01,2013-04-13 19:02:00,
2013-04-13 14:07:00,78.5,54.2,29.83,SE,125,0.0,9.0,43,0.00,,SKC,0.00,VWS V14.01,2013-04-13 19:07:00,
2013-04-13 14:10:00,78.5,54.8,29.83,ESE,119,0.0,13.0,44,0.00,,SKC,0.00,VWS V14.01,2013-04-13 19:10:00,
2013-04-13 14:12:00,78.4,54.7,29.82,ESE,122,4.0,9.0,44,0.00,,SKC,0.00,VWS V14.01,2013-04-13 19:12:00,
2013-04-13 14:17:00,79.1,56.0,29.82,ESE,123,0.0,1.0,45,0.00,,SKC,0.00,VWS V14.01,2013-04-13 19:17:00,
2013-04-13 14:20:00,78.9,55.2,29.82,ESE,123,0.0,9.0,44,0.00,,SKC,0.00,VWS V14.01,2013-04-13 19:20:00,
2013-04-13 14:22:00,79.5,54.4,29.82,ESE,117,1.0,13.0,42,0.00,,SKC,0.00,VWS V14.01,2013-04-13 19:22:00,
2013-04-13 14:27:00,79.4,54.3,29.82,ESE,117,0.0,5.0,42,0.00,,SKC,0.00,VWS V14.01,2013-04-13 19:27:00,
2013-04-13 14:30:00,79.4,55.0,29.82,ESE,116,0.0,13.0,43,0.00,,SKC,0.00,VWS V14.01,2013-04-13 19:30:00,
2013-04-13 14:32:00,79.3,54.2,29.81,ESE,111,0.0,8.0,42,0.00,,SKC,0.00,VWS V14.01,2013-04-13 19:32:00,
2013-04-13 14:37:00,79.2,54.8,29.81,ESE,118,0.0,1.0,43,0.00,,SKC,0.00,VWS V14.01,2013-04-13 19:37:00,
2013-04-13 14:40:00,79.2,54.8,29.81,ESE,111,0.0,8.0,43,0.00,,SKC,0.00,VWS V14.01,2013-04-13 19:40:00,
2013-04-13 14:42:00,79.1,55.3,29.81,ESE,117,3.0,4.0,44,0.00,,SKC,0.00,VWS V14.01,2013-04-13 19:42:00,
2013-04-13 14:47:00,79.0,55.2,29.80,SE,124,1.0,6.0,44,0.00,,SKC,0.00,VWS V14.01,2013-04-13 19:47:00,
2013-04-13 14:50:00,79.0,55.2,29.81,ESE,118,0.0,8.0,44,0.00,,SKC,0.00,VWS V14.01,2013-04-13 19:50:00,
2013-04-13 14:53:00,79.0,55.2,29.81,ESE,120,5.0,7.0,44,0.00,,SKC,0.00,VWS V14.01,2013-04-13 19:53:00,
2013-04-13 14:58:00,78.9,53.9,29.80,ESE,121,4.0,5.0,42,0.00,,SKC,0.00,VWS V14.01,2013-04-13 19:58:00,
2013-04-13 15:00:00,78.9,53.9,29.80,ESE,120,0.0,7.0,42,0.00,,SKC,0.00,VWS V14.01,2013-04-13 20:00:00,
2013-04-13 15:03:00,78.7,55.0,29.80,ESE,121,0.0,8.0,44,0.00,,SKC,0.00,VWS V14.01,2013-04-13 20:03:00,
2013-04-13 15:08:00,78.5,54.2,29.79,ESE,121,0.0,0.0,43,0.00,,SKC,0.00,VWS V14.01,2013-04-13 20:08:00,
2013-04-13 15:10:00,78.5,54.2,29.79,ESE,121,0.0,9.0,43,0.00,,SKC,0.00,VWS V14.01,2013-04-13 20:10:00,
2013-04-13 15:13:00,78.1,53.8,29.79,ESE,121,0.0,5.0,43,0.00,,SKC,0.00,VWS V14.01,2013-04-13 20:13:00,
2013-04-13 15:18:00,77.6,54.0,29.79,ESE,120,0.0,2.0,44,0.00,,SKC,0.00,VWS V14.01,2013-04-13 20:18:00,
2013-04-13 15:20:00,77.8,53.5,29.79,ESE,120,1.0,7.0,43,0.00,,SKC,0.00,VWS V14.01,2013-04-13 20:20:00,
2013-04-13 15:23:00,77.3,53.7,29.79,ESE,120,0.0,7.0,44,0.00,,SKC,0.00,VWS V14.01,2013-04-13 20:23:00,
2013-04-13 15:28:00,76.9,52.7,29.78,ESE,117,0.0,10.0,43,0.00,,SKC,0.00,VWS V14.01,2013-04-13 20:28:00,
2013-04-13 15:30:00,77.0,53.4,29.78,ESE,119,0.0,7.0,44,0.00,,SKC,0.00,VWS V14.01,2013-04-13 20:30:00,
2013-04-13 15:33:00,76.6,53.1,29.78,ESE,117,0.0,10.0,44,0.00,,SKC,0.00,VWS V14.01,2013-04-13 20:33:00,
2013-04-13 15:38:00,76.3,52.8,29.78,ESE,115,2.0,8.0,44,0.00,,SKC,0.00,VWS V14.01,2013-04-13 20:38:00,
2013-04-13 15:40:00,76.4,52.9,29.78,ESE,116,8.0,10.0,44,0.00,,SKC,0.00,VWS V14.01,2013-04-13 20:40:00,
2013-04-13 15:43:00,76.0,53.8,29.77,ESE,114,3.0,8.0,46,0.00,,SKC,0.00,VWS V14.01,2013-04-13 20:43:00,
2013-04-13 15:48:00,75.8,54.2,29.77,ESE,114,0.0,5.0,47,0.00,,SKC,0.00,VWS V14.01,2013-04-13 20:48:00,
2013-04-13 15:50:00,75.9,53.7,29.77,ESE,114,0.0,8.0,46,0.00,,SKC,0.00,VWS V14.01,2013-04-13 20:50:00,
2013-04-13 15:53:00,75.6,54.0,29.77,ESE,114,2.0,9.0,47,0.00,,SKC,0.00,VWS V14.01,2013-04-13 20:53:00,
2013-04-13 15:58:00,75.4,54.4,29.77,ESE,111,2.0,5.0,48,0.00,,SKC,0.00,VWS V14.01,2013-04-13 20:58:00,
2013-04-13 16:00:00,75.5,54.5,29.77,ESE,111,0.0,9.0,48,0.00,,SKC,0.00,VWS V14.01,2013-04-13 21:00:00,
2013-04-13 16:03:00,75.4,53.8,29.77,ESE,108,0.0,7.0,47,0.00,,SKC,0.00,VWS V14.01,2013-04-13 21:03:00,
2013-04-13 16:08:00,75.5,53.9,29.77,ESE,108,0.0,5.0,47,0.00,,SKC,0.00,VWS V14.01,2013-04-13 21:08:00,
2013-04-13 16:10:00,75.4,53.8,29.77,ESE,108,1.0,8.0,47,0.00,,SKC,0.00,VWS V14.01,2013-04-13 21:10:00,
2013-04-13 16:13:00,75.6,54.0,29.76,ESE,108,1.0,8.0,47,0.00,,SKC,0.00,VWS V14.01,2013-04-13 21:13:00,
2013-04-13 16:18:00,75.7,54.6,29.76,ESE,108,0.0,1.0,48,0.00,,SKC,0.00,VWS V14.01,2013-04-13 21:18:00,
2013-04-13 16:20:00,75.7,54.6,29.76,ESE,108,0.0,8.0,48,0.00,,SKC,0.00,VWS V14.01,2013-04-13 21:20:00,
2013-04-13 16:23:00,75.8,54.7,29.76,ESE,105,4.0,8.0,48,0.00,,SKC,0.00,VWS V14.01,2013-04-13 21:23:00,
2013-04-13 16:28:00,75.8,55.3,29.75,ESE,105,0.0,9.0,49,0.00,,SKC,0.00,VWS V14.01,2013-04-13 21:28:00,
2013-04-13 16:30:00,75.8,55.3,29.75,ESE,106,0.0,8.0,49,0.00,,SKC,0.00,VWS V14.01,2013-04-13 21:30:00,
2013-04-13 16:33:00,75.7,55.2,29.75,ESE,105,0.0,9.0,49,0.00,,SKC,0.00,VWS V14.01,2013-04-13 21:33:00,
2013-04-13 16:38:00,75.8,54.7,29.75,ESE,103,4.0,8.0,48,0.00,,SKC,0.00,VWS V14.01,2013-04-13 21:38:00,
2013-04-13 16:40:00,75.8,54.7,29.75,ESE,105,1.0,9.0,48,0.00,,SKC,0.00,VWS V14.01,2013-04-13 21:40:00,
2013-04-13 16:43:00,75.9,54.8,29.75,ESE,102,4.0,10.0,48,0.00,,SKC,0.00,VWS V14.01,2013-04-13 21:43:00,
2013-04-13 16:48:00,76.0,54.9,29.75,ESE,103,0.0,5.0,48,0.00,,SKC,0.00,VWS V14.01,2013-04-13 21:48:00,
2013-04-13 16:50:00,75.9,54.8,29.75,ESE,103,0.0,10.0,48,0.00,,SKC,0.00,VWS V14.01,2013-04-13 21:50:00,
2013-04-13 16:53:00,76.1,55.0,29.75,ESE,102,0.0,10.0,48,0.00,,SKC,0.00,VWS V14.01,2013-04-13 21:53:00,
2013-04-13 16:58:00,76.2,55.1,29.75,ESE,102,0.0,2.0,48,0.00,,SKC,0.00,VWS V14.01,2013-04-13 21:58:00,
2013-04-13 17:00:00,76.1,55.0,29.75,ESE,102,0.0,10.0,48,0.00,,SKC,0.00,VWS V14.01,2013-04-13 22:00:00,
2013-04-13 17:03:00,76.2,55.1,29.75,East,101,1.0,8.0,48,0.00,,SKC,0.00,VWS V14.01,2013-04-13 22:03:00,
2013-04-13 17:08:00,76.4,55.3,29.75,East,98,0.0,9.0,48,0.00,,SKC,0.00,VWS V14.01,2013-04-13 22:08:00,
2013-04-13 17:10:00,76.3,55.2,29.75,East,98,7.0,9.0,48,0.00,,SKC,0.00,VWS V14.01,2013-04-13 22:10:00,
2013-04-13 17:13:00,76.9,55.7,29.74,East,98,0.0,9.0,48,0.00,,SKC,0.00,VWS V14.01,2013-04-13 22:13:00,
2013-04-13 17:18:00,77.3,55.5,29.74,East,95,3.0,7.0,47,0.00,,SKC,0.00,VWS V14.01,2013-04-13 22:18:00,
2013-04-13 17:20:00,77.1,55.9,29.74,East,97,6.0,9.0,48,0.00,,SKC,0.00,VWS V14.01,2013-04-13 22:20:00,
2013-04-13 17:23:00,77.5,55.7,29.74,East,95,0.0,7.0,47,0.00,,SKC,0.00,VWS V14.01,2013-04-13 22:23:00,
2013-04-13 17:28:00,77.6,55.8,29.74,East,94,3.0,8.0,47,0.00,,SKC,0.00,VWS V14.01,2013-04-13 22:28:00,
2013-04-13 17:30:00,77.5,55.7,29.74,East,94,0.0,9.0,47,0.00,,SKC,0.00,VWS V14.01,2013-04-13 22:30:00,
2013-04-13 17:33:00,77.6,55.8,29.74,East,94,0.0,8.0,47,0.00,,SKC,0.00,VWS V14.01,2013-04-13 22:33:00,
2013-04-13 17:38:00,77.8,56.0,29.74,East,94,0.0,2.0,47,0.00,,SKC,0.00,VWS V14.01,2013-04-13 22:38:00,
2013-04-13 17:40:00,77.7,55.3,29.74,East,94,1.0,8.0,46,0.00,,SKC,0.00,VWS V14.01,2013-04-13 22:40:00,
2013-04-13 17:43:00,78.1,54.4,29.73,East,97,6.0,10.0,44,0.00,,SKC,0.00,VWS V14.01,2013-04-13 22:43:00,
2013-04-13 17:48:00,78.5,53.5,29.73,ESE,104,2.0,5.0,42,0.00,,SKC,0.00,VWS V14.01,2013-04-13 22:48:00,
2013-04-13 17:50:00,78.4,54.1,29.73,ESE,104,5.0,10.0,43,0.00,,SKC,0.00,VWS V14.01,2013-04-13 22:50:00,
2013-04-13 17:53:00,78.8,54.4,29.73,ESE,104,0.0,5.0,43,0.00,,SKC,0.00,VWS V14.01,2013-04-13 22:53:00,
2013-04-13 17:58:00,79.1,54.7,29.73,ESE,105,0.0,2.0,43,0.00,,SKC,0.00,VWS V14.01,2013-04-13 22:58:00,
2013-04-13 18:00:00,79.1,54.7,29.73,ESE,105,5.0,9.0,43,0.00,,SKC,0.00,VWS V14.01,2013-04-13 23:00:00,
2013-04-13 18:03:00,78.9,53.9,29.73,ESE,109,2.0,11.0,42,0.00,,SKC,0.00,VWS V14.01,2013-04-13 23:03:00,
2013-04-13 18:08:00,78.6,53.6,29.73,ESE,116,0.0,14.0,42,0.00,,SKC,0.00,VWS V14.01,2013-04-13 23:08:00,
2013-04-13 18:10:00,78.7,53.7,29.73,ESE,112,0.0,11.0,42,0.00,,SKC,0.00,VWS V14.01,2013-04-13 23:10:00,
2013-04-13 18:13:00,78.3,53.3,29.74,SE,132,2.0,14.0,42,0.00,,SKC,0.00,VWS V14.01,2013-04-13 23:13:00,
2013-04-13 18:18:00,78.0,53.1,29.74,SE,128,2.0,7.0,42,0.00,,SKC,0.00,VWS V14.01,2013-04-13 23:18:00,
2013-04-13 18:20:00,78.0,53.1,29.74,SE,131,2.0,14.0,42,0.00,,SKC,0.00,VWS V14.01,2013-04-13 23:20:00,
2013-04-13 18:23:00,77.7,53.5,29.74,SE,126,0.0,8.0,43,0.00,,SKC,0.00,VWS V14.01,2013-04-13 23:23:00,
2013-04-13 18:28:00,77.3,53.1,29.74,SE,125,0.0,5.0,43,0.00,,SKC,0.00,VWS V14.01,2013-04-13 23:28:00,
2013-04-13 18:30:00,77.4,53.2,29.74,SE,126,0.0,8.0,43,0.00,,SKC,0.00,VWS V14.01,2013-04-13 23:30:00,
2013-04-13 18:33:00,76.9,53.3,29.74,ESE,121,3.0,7.0,44,0.00,,SKC,0.00,VWS V14.01,2013-04-13 23:33:00,
2013-04-13 18:38:00,76.5,53.0,29.74,ESE,122,0.0,1.0,44,0.00,,SKC,0.00,VWS V14.01,2013-04-13 23:38:00,
2013-04-13 18:40:00,76.6,53.1,29.74,ESE,122,0.0,7.0,44,0.00,,SKC,0.00,VWS V14.01,2013-04-13 23:40:00,
2013-04-13 18:43:00,76.2,53.3,29.74,ESE,121,1.0,9.0,45,0.00,,SKC,0.00,VWS V14.01,2013-04-13 23:43:00,
2013-04-13 18:48:00,75.9,53.1,29.74,ESE,120,3.0,8.0,45,0.00,,SKC,0.00,VWS V14.01,2013-04-13 23:48:00,
2013-04-13 18:50:00,76.0,53.2,29.75,ESE,120,0.0,9.0,45,0.00,,SKC,0.00,VWS V14.01,2013-04-13 23:50:00,
2013-04-13 18:53:00,75.7,53.5,29.75,ESE,119,0.0,8.0,46,0.00,,SKC,0.00,VWS V14.01,2013-04-13 23:53:00,
2013-04-13 18:58:00,75.5,53.3,29.75,ESE,120,0.0,4.0,46,0.00,,SKC,0.00,VWS V14.01,2013-04-13 23:58:00,
2013-04-13 19:00:00,75.6,53.4,29.75,ESE,120,0.0,8.0,46,0.00,,SKC,0.00,VWS V14.01,2013-04-14 00:00:00,
2013-04-13 19:03:00,75.3,53.1,29.75,ESE,119,3.0,7.0,46,0.00,,SKC,0.00,VWS V14.01,2013-04-14 00:03:00,
2013-04-13 19:08:00,75.1,53.5,29.75,ESE,120,3.0,3.0,47,0.00,,SKC,0.00,VWS V14.01,2013-04-14 00:08:00,
2013-04-13 19:10:00,75.1,53.5,29.75,ESE,119,0.0,7.0,47,0.00,,SKC,0.00,VWS V14.01,2013-04-14 00:10:00,
2013-04-13 19:13:00,74.8,53.8,29.75,ESE,121,0.0,8.0,48,0.00,,SKC,0.00,VWS V14.01,2013-04-14 00:13:00,
2013-04-13 19:18:00,74.6,54.2,29.74,SE,126,1.0,8.0,49,0.00,,SKC,0.00,VWS V14.01,2013-04-14 00:18:00,
2013-04-13 19:20:00,74.7,54.3,29.75,SE,127,0.0,9.0,49,0.00,,SKC,0.00,VWS V14.01,2013-04-14 00:20:00,
2013-04-13 19:23:00,74.3,53.9,29.75,SE,132,0.0,8.0,49,0.00,,SKC,0.00,VWS V14.01,2013-04-14 00:23:00,
2013-04-13 19:28:00,74.1,53.7,29.75,SSE,148,0.0,0.0,49,0.00,,SKC,0.00,VWS V14.01,2013-04-14 00:28:00,
2013-04-13 19:30:00,74.2,53.8,29.75,SE,132,0.0,8.0,49,0.00,,SKC,0.00,VWS V14.01,2013-04-14 00:30:00,
2013-04-13 19:33:00,73.9,54.1,29.75,SE,146,0.0,1.0,50,0.00,,SKC,0.00,VWS V14.01,2013-04-14 00:33:00,
2013-04-13 19:38:00,73.7,53.9,29.75,SE,130,0.0,4.0,50,0.00,,SKC,0.00,VWS V14.01,2013-04-14 00:38:00,
2013-04-13 19:40:00,73.7,53.9,29.75,SE,130,0.0,9.0,50,0.00,,SKC,0.00,VWS V14.01,2013-04-14 00:40:00,
2013-04-13 19:43:00,73.5,54.3,29.75,SE,130,0.0,4.0,51,0.00,,SKC,0.00,VWS V14.01,2013-04-14 00:43:00,
2013-04-13 19:48:00,73.3,54.1,29.75,SE,130,0.0,0.0,51,0.00,,SKC,0.00,VWS V14.01,2013-04-14 00:48:00,
2013-04-13 19:50:00,73.4,54.2,29.75,SE,130,0.0,4.0,51,0.00,,SKC,0.00,VWS V14.01,2013-04-14 00:50:00,
2013-04-13 19:53:00,73.1,54.5,29.74,SE,130,0.0,6.0,52,0.00,,SKC,0.00,VWS V14.01,2013-04-14 00:53:00,
2013-04-13 19:58:00,72.9,54.3,29.74,SE,130,0.0,1.0,52,0.00,,SKC,0.00,VWS V14.01,2013-04-14 00:58:00,
2013-04-13 20:00:00,73.0,54.3,29.74,SE,130,0.0,6.0,52,0.00,,SKC,0.00,VWS V14.01,2013-04-14 01:00:00,
2013-04-13 20:03:00,72.6,54.5,29.74,SE,128,0.0,8.0,53,0.00,,SKC,0.00,VWS V14.01,2013-04-14 01:03:00,
2013-04-13 20:08:00,72.3,54.7,29.74,SE,129,0.0,1.0,54,0.00,,SKC,0.00,VWS V14.01,2013-04-14 01:08:00,
2013-04-13 20:10:00,72.4,54.8,29.74,SE,129,0.0,8.0,54,0.00,,SKC,0.00,VWS V14.01,2013-04-14 01:10:00,
2013-04-13 20:13:00,71.9,54.9,29.75,SE,128,0.0,4.0,55,0.00,,SKC,0.00,VWS V14.01,2013-04-14 01:13:00,
2013-04-13 20:18:00,71.6,55.1,29.75,SE,128,0.0,4.0,56,0.00,,SKC,0.00,VWS V14.01,2013-04-14 01:18:00,
2013-04-13 20:20:00,71.7,54.7,29.75,SE,128,4.0,4.0,55,0.00,,SKC,0.00,VWS V14.01,2013-04-14 01:20:00,
2013-04-13 20:23:00,71.2,54.7,29.75,SE,126,0.0,10.0,56,0.00,,SKC,0.00,VWS V14.01,2013-04-14 01:23:00,
2013-04-13 20:28:00,71.0,55.0,29.75,SE,126,3.0,3.0,57,0.00,,SKC,0.00,VWS V14.01,2013-04-14 01:28:00,
2013-04-13 20:30:00,71.1,55.1,29.75,SE,126,0.0,10.0,57,0.00,,SKC,0.00,VWS V14.01,2013-04-14 01:30:00,
2013-04-13 20:33:00,70.8,54.8,29.75,SE,126,0.0,3.0,57,0.00,,SKC,0.00,VWS V14.01,2013-04-14 01:33:00,
2013-04-13 20:38:00,70.5,54.5,29.75,SE,126,0.0,3.0,57,0.00,,SKC,0.00,VWS V14.01,2013-04-14 01:38:00,
2013-04-13 20:40:00,70.6,54.6,29.75,SE,126,0.0,3.0,57,0.00,,SKC,0.00,VWS V14.01,2013-04-14 01:40:00,
2013-04-13 20:43:00,70.3,54.8,29.75,SE,126,0.0,4.0,58,0.00,,SKC,0.00,VWS V14.01,2013-04-14 01:43:00,
2013-04-13 20:48:00,70.0,54.6,29.75,SE,126,0.0,2.0,58,0.00,,SKC,0.00,VWS V14.01,2013-04-14 01:48:00,
2013-04-13 20:50:00,70.1,54.7,29.75,SE,126,0.0,4.0,58,0.00,,SKC,0.00,VWS V14.01,2013-04-14 01:50:00,
2013-04-13 20:53:00,69.7,54.3,29.76,SE,126,0.0,2.0,58,0.00,,SKC,0.00,VWS V14.01,2013-04-14 01:53:00,
2013-04-13 20:58:00,69.4,54.5,29.76,SE,126,0.0,6.0,59,0.00,,SKC,0.00,VWS V14.01,2013-04-14 01:58:00,
2013-04-13 21:00:00,69.5,54.6,29.76,SE,126,0.0,2.0,59,0.00,,SKC,0.00,VWS V14.01,2013-04-14 02:00:00,
2013-04-13 21:03:00,69.2,54.7,29.76,SE,126,0.0,6.0,60,0.00,,SKC,0.00,VWS V14.01,2013-04-14 02:03:00,
2013-04-13 21:08:00,68.9,54.5,29.76,SE,126,0.0,0.0,60,0.00,,SKC,0.00,VWS V14.01,2013-04-14 02:08:00,
2013-04-13 21:10:00,69.0,54.5,29.76,SE,126,0.0,6.0,60,0.00,,SKC,0.00,VWS V14.01,2013-04-14 02:10:00,
2013-04-13 21:13:00,68.6,54.2,29.77,SE,125,5.0,8.0,60,0.00,,SKC,0.00,VWS V14.01,2013-04-14 02:13:00,
2013-04-13 21:18:00,68.4,54.4,29.77,SE,125,0.0,0.0,61,0.00,,SKC,0.00,VWS V14.01,2013-04-14 02:18:00,
2013-04-13 21:20:00,68.5,54.5,29.77,SE,125,0.0,8.0,61,0.00,,SKC,0.00,VWS V14.01,2013-04-14 02:20:00,
2013-04-13 21:23:00,68.1,54.6,29.77,SE,125,0.0,5.0,62,0.00,,SKC,0.00,VWS V14.01,2013-04-14 02:23:00,
2013-04-13 21:28:00,67.9,54.4,29.78,SE,125,0.0,0.0,62,0.00,,SKC,0.00,VWS V14.01,2013-04-14 02:28:00,
2013-04-13 21:30:00,68.0,54.5,29.78,SE,125,0.0,5.0,62,0.00,,SKC,0.00,VWS V14.01,2013-04-14 02:30:00,
2013-04-13 21:33:00,67.6,54.6,29.79,SE,125,0.0,0.0,63,0.00,,SKC,0.00,VWS V14.01,2013-04-14 02:33:00,
2013-04-13 21:38:00,67.4,54.8,29.79,SE,125,0.0,0.0,64,0.00,,SKC,0.00,VWS V14.01,2013-04-14 02:38:00,
2013-04-13 21:40:00,67.4,54.4,29.79,SE,125,0.0,1.0,63,0.00,,SKC,0.00,VWS V14.01,2013-04-14 02:40:00,
2013-04-13 21:43:00,67.1,54.5,29.79,SE,125,0.0,1.0,64,0.00,,SKC,0.00,VWS V14.01,2013-04-14 02:43:00,
2013-04-13 21:48:00,66.8,54.7,29.79,SE,125,0.0,1.0,65,0.00,,SKC,0.00,VWS V14.01,2013-04-14 02:48:00,
2013-04-13 21:50:00,66.9,54.8,29.79,SE,125,0.0,2.0,65,0.00,,SKC,0.00,VWS V14.01,2013-04-14 02:50:00,
2013-04-13 21:53:00,66.6,54.9,29.79,SE,125,0.0,2.0,66,0.00,,SKC,0.00,VWS V14.01,2013-04-14 02:53:00,
2013-04-13 21:58:00,66.3,54.6,29.79,SE,125,0.0,4.0,66,0.00,,SKC,0.00,VWS V14.01,2013-04-14 02:58:00,
2013-04-13 22:00:00,66.4,54.7,29.79,SE,125,0.0,2.0,66,0.00,,SKC,0.00,VWS V14.01,2013-04-14 03:00:00,
2013-04-13 22:03:00,66.1,54.8,29.79,SE,125,0.0,5.0,67,0.00,,SKC,0.00,VWS V14.01,2013-04-14 03:03:00,
2013-04-13 22:08:00,65.9,55.0,29.80,SE,125,0.0,0.0,68,0.00,,SKC,0.00,VWS V14.01,2013-04-14 03:08:00,
2013-04-13 22:10:00,65.9,54.7,29.80,SE,125,0.0,5.0,67,0.00,,SKC,0.00,VWS V14.01,2013-04-14 03:10:00,
2013-04-13 22:13:00,65.7,54.9,29.81,SE,125,0.0,0.0,68,0.00,,SKC,0.00,VWS V14.01,2013-04-14 03:13:00,
2013-04-13 22:18:00,65.6,55.2,29.80,SE,125,0.0,1.0,69,0.00,,SKC,0.00,VWS V14.01,2013-04-14 03:18:00,
2013-04-13 22:20:00,65.6,55.2,29.81,SE,125,0.0,0.0,69,0.00,,SKC,0.00,VWS V14.01,2013-04-14 03:20:00,
2013-04-13 22:23:00,65.6,55.2,29.80,SE,125,0.0,1.0,69,0.00,,SKC,0.00,VWS V14.01,2013-04-14 03:23:00,
2013-04-13 22:28:00,65.6,55.6,29.80,SE,125,0.0,4.0,70,0.00,,SKC,0.00,VWS V14.01,2013-04-14 03:28:00,
2013-04-13 22:30:00,65.6,55.6,29.80,SE,125,4.0,6.0,70,0.00,,SKC,0.00,VWS V14.01,2013-04-14 03:30:00,
2013-04-13 22:33:00,65.6,55.6,29.80,SE,125,0.0,4.0,70,0.00,,SKC,0.00,VWS V14.01,2013-04-14 03:33:00,
2013-04-13 22:38:00,65.5,55.9,29.81,SE,125,0.0,1.0,71,0.00,,SKC,0.00,VWS V14.01,2013-04-14 03:38:00,
2013-04-13 22:40:00,65.5,55.5,29.81,SE,125,0.0,5.0,70,0.00,,SKC,0.00,VWS V14.01,2013-04-14 03:40:00,
2013-04-13 22:43:00,65.4,56.2,29.81,SE,125,4.0,4.0,72,0.00,,SKC,0.00,VWS V14.01,2013-04-14 03:43:00,
2013-04-13 22:48:00,65.4,55.8,29.81,SE,125,0.0,1.0,71,0.00,,SKC,0.00,VWS V14.01,2013-04-14 03:48:00,
2013-04-13 22:50:00,65.4,55.8,29.81,SE,125,0.0,4.0,71,0.00,,SKC,0.00,VWS V14.01,2013-04-14 03:50:00,
2013-04-13 22:53:00,65.3,56.0,29.81,SE,125,0.0,1.0,72,0.00,,SKC,0.00,VWS V14.01,2013-04-14 03:53:00,
2013-04-13 22:58:00,65.2,56.0,29.81,SE,125,0.0,0.0,72,0.00,,SKC,0.00,VWS V14.01,2013-04-14 03:58:00,
2013-04-13 23:00:00,65.2,56.0,29.81,SE,125,0.0,0.0,72,0.00,,SKC,0.00,VWS V14.01,2013-04-14 04:00:00,
2013-04-13 23:05:00,65.1,55.9,29.81,SE,125,0.0,1.0,72,0.00,,SKC,0.00,VWS V14.01,2013-04-14 04:05:00,
2013-04-13 23:10:00,64.9,56.0,29.81,SE,125,0.0,4.0,73,0.00,,SKC,0.00,VWS V14.01,2013-04-14 04:10:00,
2013-04-13 23:15:00,64.8,56.0,29.81,SE,125,0.0,4.0,73,0.00,,SKC,0.00,VWS V14.01,2013-04-14 04:15:00,
2013-04-13 23:20:00,64.6,55.8,29.81,SE,125,0.0,0.0,73,0.00,,SKC,0.00,VWS V14.01,2013-04-14 04:20:00,
2013-04-13 23:25:00,64.4,55.9,29.81,SE,125,0.0,0.0,74,0.00,,SKC,0.00,VWS V14.01,2013-04-14 04:25:00,
2013-04-13 23:30:00,64.2,55.8,29.81,SE,125,0.0,0.0,74,0.00,,SKC,0.00,VWS V14.01,2013-04-14 04:30:00,
2013-04-13 23:35:00,64.0,55.9,29.81,SE,125,0.0,0.0,75,0.00,,SKC,0.00,VWS V14.01,2013-04-14 04:35:00,
2013-04-13 23:40:00,63.7,56.0,29.81,SE,125,0.0,0.0,76,0.00,,SKC,0.00,VWS V14.01,2013-04-14 04:40:00,
2013-04-13 23:45:00,63.4,55.7,29.81,SE,125,0.0,0.0,76,0.00,,SKC,0.00,VWS V14.01,2013-04-14 04:45:00,
2013-04-13 23:50:00,63.2,55.9,29.81,SE,125,0.0,0.0,77,0.00,,SKC,0.00,VWS V14.01,2013-04-14 04:50:00,
2013-04-13 23:55:00,62.9,55.6,29.81,SE,125,0.0,0.0,77,0.00,,SKC,0.00,VWS V14.01,2013-04-14 04:55:00,